Flag for Japan Weather past 2 weeks in Utsunomiya, Japan

Now
48 °F

Cool.


Feels Like: 47 °F
Forecast: 43 / 69 °F
Wind: 3 mph from Northwest

Location: Mito


UV Index: 5 (Moderate)

Visibility: N/A


Pressure: 30.28 "Hg

Humidity: 85%

Dew point: 43 °F

Location of UtsunomiyaLocation

Historic Weather in Utsunomiya

°F

Utsunomiya temperature yesterday

Maximum temperature yesterday: 64 °F (at 12:00 PM)
Minimum temperature yesterday: 45 °F (at 5:00 AM)
Average temperature yesterday: 56 °F

Past Weeks' High & Low Weather Summary

 TemperatureHumidityPressure
High75 °F (Apr 10, 2:00 PM)98% (Apr 22, 1:00 AM)30.30 "Hg (Apr 22, 1:00 AM)
Low35 °F (Apr 12, 5:00 AM)15% (Apr 12, 3:00 PM)29.64 "Hg (Apr 10, 3:00 PM)
Average54 °F60%30.02 "Hg
* Reported Midnight between Apr 9 and Apr 10 — Midnight between Apr 24 and Apr 25, Utsunomiya, Weather by CustomWeather, © 2014

Note: Actual official high and low records may vary slightly from our data, if they occured in-between our weather recording intervals... More about our weather records

Advertising

Historic Weather Conditions — Data for Previous 24 hours

 ConditionsComfort  
Time TempWeatherWind HumidityBarometerVisibility
12:00 AM
Apr 25
48 °FCool.3 mph85%30.29 "HgN/A
11:00 PM
Apr 24
50 °FCool.3 mph79%30.29 "HgN/A
10:00 PM51 °FCool.5 mph78%30.30 "HgN/A
9:00 PM57 °FClear.2 mph65%30.30 "Hg12 mi
8:00 PM58 °FCool.3 mph62%30.29 "HgN/A
7:00 PM58 °FRefreshingly cool.5 mph59%30.26 "HgN/A
6:00 PM59 °FRefreshingly cool.5 mph55%30.25 "HgN/A
5:00 PM60 °FRefreshingly cool.7 mph47%30.24 "HgN/A
4:00 PM61 °FRefreshingly cool.8 mph44%30.22 "HgN/A
3:00 PM63 °FSunny.8 mph44%30.21 "Hg12 mi
2:00 PM64 °FMild.9 mph39%30.23 "HgN/A
1:00 PM64 °FMild.10 mph35%30.24 "HgN/A
12:00 PM64 °FMild.10 mph32%30.25 "HgN/A
11:00 AM64 °FMild.9 mph30%30.27 "HgN/A
10:00 AM64 °FMild.7 mph29%30.27 "HgN/A
9:00 AM60 °FSunny.3 mph34%30.26 "Hg12 mi
8:00 AM56 °FRefreshingly cool.3 mph52%30.26 "HgN/A
7:00 AM51 °FCool.3 mph66%30.25 "HgN/A
6:00 AM48 °FCool.3 mph76%30.23 "HgN/A
5:00 AM45 °FCool.3 mph92%30.20 "HgN/A
4:00 AM46 °FCool.2 mph89%30.17 "HgN/A
3:00 AM48 °FClear.3 mph80%30.16 "Hg12 mi
2:00 AM49 °FCool.3 mph85%30.15 "HgN/A
1:00 AM52 °FCool.2 mph75%30.14 "HgN/A
Weather by CustomWeather, © 2014

See weather overview